• In Belarus
  • List of Countries
  • For 7 days
  • Water Temperature
  • Satellite Maps
  • Weather Map
  • Weather Widgets
  • user-avatar
    Login

    Hourly Weather Salzburg

    Today, 20 May, Monday

    Time Temperature Precipitation Wind Pressure Humidity
    00:00 +3°C° 0 mm 2 mps 616 mmHg 94%
    01:00 +3°C° 0 mm 1 mps 616 mmHg 94%
    02:00 +3°C° 0.1 mm 1 mps 616 mmHg 94%
    03:00 +3°C° 0.1 mm 1 mps 616 mmHg 93%
    04:00 +3°C° 0.1 mm 1 mps 615 mmHg 93%
    05:00 +4°C° 0.3 mm 1 mps 616 mmHg 92%
    06:00 +5°C° 0.3 mm 1 mps 616 mmHg 92%
    07:00 +5°C° 0.3 mm 0 mps 616 mmHg 91%
    08:00 +6°C° 0.7 mm 0 mps 617 mmHg 89%
    09:00 +7°C° 0.7 mm 0 mps 617 mmHg 87%
    10:00 +8°C° 0.7 mm 0 mps 617 mmHg 85%
    11:00 +8°C° 0.9 mm 0 mps 618 mmHg 85%
    12:00 +9°C° 0.9 mm 0 mps 618 mmHg 85%
    13:00 +10°C° 0.9 mm 1 mps 618 mmHg 85%
    14:00 +10°C° 1 mm 1 mps 618 mmHg 87%
    15:00 +9°C° 1 mm 1 mps 618 mmHg 89%
    16:00 +9°C° 1 mm 1 mps 618 mmHg 91%
    17:00 +8°C° 1.1 mm 1 mps 618 mmHg 93%
    18:00 +7°C° 1.1 mm 1 mps 617 mmHg 95%
    19:00 +6°C° 1.1 mm 1 mps 617 mmHg 97%
    20:00 +6°C° 0.5 mm 1 mps 617 mmHg 97%
    21:00 +5°C° 0.5 mm 1 mps 617 mmHg 97%
    22:00 +5°C° 0.5 mm 1 mps 617 mmHg 97%
    23:00 +5°C° 1.1 mm 1 mps 617 mmHg 97%

    Tomorrow, 21 May, Tuesday

    Time Temperature Precipitation Wind Pressure Humidity
    00:00 +4°C° 1.1 mm 1 mps 617 mmHg 97%
    01:00 +4°C° 1.1 mm 1 mps 617 mmHg 97%
    02:00 +4°C° 1.5 mm 1 mps 617 mmHg 97%
    03:00 +4°C° 1.5 mm 1 mps 617 mmHg 96%
    04:00 +4°C° 1.5 mm 1 mps 617 mmHg 96%
    05:00 +4°C° 1.7 mm 1 mps 618 mmHg 96%
    06:00 +4°C° 1.7 mm 1 mps 618 mmHg 96%
    07:00 +4°C° 1.7 mm 1 mps 618 mmHg 96%
    08:00 +4°C° 3.2 mm 1 mps 619 mmHg 96%
    09:00 +4°C° 3.2 mm 1 mps 619 mmHg 96%
    10:00 +5°C° 3.2 mm 1 mps 619 mmHg 96%
    11:00 +5°C° 2.5 mm 1 mps 620 mmHg 95%
    12:00 +5°C° 2.5 mm 1 mps 620 mmHg 95%
    13:00 +5°C° 2.5 mm 1 mps 620 mmHg 94%
    14:00 +6°C° 1.1 mm 1 mps 621 mmHg 93%
    15:00 +6°C° 1.1 mm 1 mps 621 mmHg 92%
    16:00 +6°C° 1.1 mm 1 mps 621 mmHg 90%
    17:00 +5°C° 1.1 mm 1 mps 621 mmHg 92%
    18:00 +5°C° 1.1 mm 1 mps 621 mmHg 93%
    19:00 +4°C° 1.1 mm 1 mps 621 mmHg 94%
    20:00 +4°C° 1.2 mm 1 mps 622 mmHg 94%
    21:00 +4°C° 1.2 mm 1 mps 622 mmHg 94%
    22:00 +4°C° 1.2 mm 1 mps 622 mmHg 94%
    23:00 +4°C° 1.7 mm 1 mps 622 mmHg 94%

    Day after tomorrow, 22 May, Wednesday

    Time Temperature Precipitation Wind Pressure Humidity
    00:00 +4°C° 1.7 mm 1 mps 622 mmHg 95%
    01:00 +4°C° 1.7 mm 1 mps 623 mmHg 95%
    02:00 +4°C° 1.3 mm 1 mps 623 mmHg 95%
    03:00 +4°C° 1.3 mm 1 mps 623 mmHg 95%
    04:00 +4°C° 1.3 mm 1 mps 623 mmHg 95%
    05:00 +4°C° 1.5 mm 1 mps 623 mmHg 95%
    06:00 +4°C° 1.5 mm 1 mps 623 mmHg 96%
    07:00 +4°C° 1.5 mm 1 mps 624 mmHg 96%
    08:00 +5°C° 0.6 mm 1 mps 624 mmHg 95%
    09:00 +5°C° 0.6 mm 1 mps 624 mmHg 94%
    10:00 +6°C° 0.6 mm 1 mps 625 mmHg 92%
    11:00 +7°C° 0.4 mm 1 mps 625 mmHg 90%
    12:00 +6°C° 0.4 mm 2 mps 626 mmHg 87%
    13:00 +7°C° 0.4 mm 2 mps 626 mmHg 85%
    14:00 +7°C° 0.3 mm 2 mps 626 mmHg 85%
    15:00 +8°C° 0.3 mm 1 mps 626 mmHg 84%
    16:00 +8°C° 0.3 mm 1 mps 626 mmHg 84%
    17:00 +7°C° 0.1 mm 1 mps 626 mmHg 86%
    18:00 +7°C° 0.1 mm 1 mps 626 mmHg 89%
    19:00 +6°C° 0.1 mm 1 mps 626 mmHg 91%
    20:00 +5°C° 0.1 mm 1 mps 626 mmHg 93%
    21:00 +4°C° 0.1 mm 1 mps 626 mmHg 95%
    22:00 +4°C° 0.1 mm 1 mps 627 mmHg 97%
    23:00 +3°C° 0 mm 1 mps 627 mmHg 97%

    23 May, Thursday

    Time Temperature Precipitation Wind Pressure Humidity
    00:00 +3°C° 0 mm 1 mps 627 mmHg 97%
    01:00 +3°C° 0 mm 1 mps 627 mmHg 97%
    02:00 +3°C° 0 mm 1 mps 627 mmHg 97%
    03:00 +2°C° 0 mm 0 mps 627 mmHg 97%
    04:00 +2°C° 0 mm 0 mps 627 mmHg 97%
    05:00 +3°C° 0 mm 0 mps 627 mmHg 94%
    06:00 +4°C° 0 mm 0 mps 627 mmHg 91%
    07:00 +5°C° 0 mm 0 mps 628 mmHg 88%
    08:00 +7°C° 0 mm 1 mps 628 mmHg 81%
    09:00 +9°C° 0 mm 1 mps 628 mmHg 73%
    10:00 +10°C° 0 mm 1 mps 629 mmHg 66%
    11:00 +11°C° 0 mm 1 mps 629 mmHg 59%
    12:00 +13°C° 0 mm 1 mps 629 mmHg 51%
    13:00 +14°C° 0 mm 2 mps 629 mmHg 44%
    14:00 +14°C° 0 mm 2 mps 629 mmHg 45%
    15:00 +14°C° 0 mm 2 mps 629 mmHg 47%
    16:00 +13°C° 0 mm 2 mps 628 mmHg 49%
    17:00 +12°C° 0 mm 2 mps 628 mmHg 60%
    18:00 +10°C° 0 mm 1 mps 627 mmHg 71%
    19:00 +8°C° 0 mm 1 mps 626 mmHg 82%
    20:00 +7°C° 0 mm 1 mps 626 mmHg 86%
    21:00 +5°C° 0 mm 1 mps 626 mmHg 90%
    22:00 +4°C° 0 mm 1 mps 626 mmHg 94%
    23:00 +3°C° 0 mm 1 mps 625 mmHg 94%

    24 May, Friday

    Time Temperature Precipitation Wind Pressure Humidity
    00:00 +3°C° 0 mm 1 mps 625 mmHg 94%
    01:00 +3°C° 0 mm 1 mps 625 mmHg 94%
    02:00 +3°C° 0 mm 1 mps 625 mmHg 92%
    03:00 +2°C° 0 mm 1 mps 624 mmHg 90%
    04:00 +2°C° 0 mm 1 mps 624 mmHg 88%
    05:00 +4°C° 0 mm 1 mps 625 mmHg 79%
    06:00 +7°C° 0 mm 1 mps 625 mmHg 70%
    07:00 +8°C° 0 mm 0 mps 626 mmHg 61%
    08:00 +11°C° 0 mm 1 mps 626 mmHg 55%
    09:00 +13°C° 0 mm 1 mps 627 mmHg 48%
    10:00 +14°C° 0 mm 1 mps 627 mmHg 42%
    11:00 +15°C° 0 mm 1 mps 627 mmHg 40%
    12:00 +16°C° 0 mm 1 mps 626 mmHg 39%
    13:00 +16°C° 0 mm 2 mps 626 mmHg 37%
    14:00 +16°C° 0 mm 2 mps 625 mmHg 40%
    15:00 +15°C° 0 mm 2 mps 625 mmHg 43%
    16:00 +15°C° 0 mm 2 mps 624 mmHg 45%
    17:00 +13°C° 0.7 mm 1 mps 623 mmHg 60%
    18:00 +11°C° 0.7 mm 1 mps 622 mmHg 74%
    19:00 +9°C° 0.7 mm 1 mps 621 mmHg 88%
    20:00 +8°C° 1.6 mm 1 mps 621 mmHg 91%
    21:00 +7°C° 1.6 mm 1 mps 621 mmHg 95%
    22:00 +6°C° 1.6 mm 1 mps 621 mmHg 98%
    23:00 +6°C° 4 mm 1 mps 621 mmHg 98%

    25 May, Saturday

    Time Temperature Precipitation Wind Pressure Humidity
    00:00 +5°C° 4 mm 1 mps 620 mmHg 98%
    01:00 +4°C° 4 mm 1 mps 620 mmHg 98%
    02:00 +4°C° 1.9 mm 1 mps 620 mmHg 98%
    03:00 +3°C° 1.9 mm 1 mps 620 mmHg 98%
    04:00 +3°C° 1.9 mm 1 mps 620 mmHg 97%
    05:00 +3°C° 1 mm 1 mps 620 mmHg 97%
    06:00 +3°C° 1 mm 1 mps 621 mmHg 96%
    07:00 +3°C° 1 mm 0 mps 621 mmHg 95%
    08:00 +4°C° 0.6 mm 1 mps 621 mmHg 93%
    09:00 +5°C° 0.6 mm 1 mps 621 mmHg 91%
    10:00 +6°C° 0.6 mm 1 mps 622 mmHg 88%
    11:00 +7°C° 0.5 mm 1 mps 622 mmHg 86%
    12:00 +7°C° 0.5 mm 1 mps 622 mmHg 84%
    13:00 +8°C° 0.5 mm 1 mps 622 mmHg 82%
    14:00 +8°C° 0.6 mm 1 mps 623 mmHg 82%
    15:00 +8°C° 0.6 mm 1 mps 623 mmHg 83%
    16:00 +8°C° 0.6 mm 1 mps 623 mmHg 84%
    17:00 +7°C° 0.4 mm 1 mps 623 mmHg 87%
    18:00 +7°C° 0.4 mm 1 mps 623 mmHg 90%
    19:00 +6°C° 0.4 mm 1 mps 623 mmHg 94%
    20:00 +5°C° 0.3 mm 1 mps 623 mmHg 95%
    21:00 +5°C° 0.3 mm 1 mps 623 mmHg 96%
    22:00 +4°C° 0.3 mm 1 mps 623 mmHg 97%
    23:00 +4°C° 0.3 mm 1 mps 624 mmHg 97%
    Show more